W3EX Weather Reports


Display with metric or nautical units.
time (UTC)temp
F
wind
direction
speed
MPH
gust
MPH
rain 1hr
in
rain 24hr
in
rain mn
in
humidity
%
barometer
mb
20260506221602 68 259 0.0 6.0 0.00 0.24 0.24 79 1003.0
20260506220002 67 321 1.0 5.0 0.00 0.24 0.24 80 1003.5
20260506214602 67 240 0.0 6.0 0.00 0.24 0.24 80 1003.4
20260506211502 66 182 3.0 8.0 0.00 0.24 0.24 81 1003.1
20260506204502 65 277 0.0 6.0 0.00 0.24 0.24 83 1003.0
20260506203102 65 224 2.0 8.0 0.00 0.24 0.24 82 1003.0
20260506201507 65 330 0.0 11.0 0.00 0.24 0.24 84 1003.0
20260506200113 64 242 3.0 11.0 0.00 0.24 0.24 84 1003.0
20260506194624 64 187 2.0 9.0 0.00 0.24 0.24 86 1003.2
20260506193002 62 348 2.0 7.0 0.00 0.24 0.24 88 1003.5
20260506191602 62 261 1.0 8.0 0.00 0.24 0.24 90 1003.6
20260506190006 61 221 2.0 7.0 0.00 0.24 0.24 90 1003.8
20260506184611 61 284 1.0 9.0 0.00 0.24 0.24 90 1003.9
20260506183002 62 211 2.0 8.0 0.00 0.24 0.24 88 1004.1
20260506181602 62 182 3.0 13.0 0.00 0.24 0.24 87 1004.1
20260506180007 62 179 3.0 12.0 0.00 0.24 0.24 88 1004.1
20260506174604 62 196 3.0 9.0 0.00 0.24 0.24 88 1004.2
20260506173003 61 207 3.0 6.0 0.00 0.24 0.24 89 1004.1
20260506171602 61 168 2.0 8.0 0.02 0.24 0.24 89 1004.4
20260506170008 61 205 5.0 15.0 0.03 0.24 0.24 89 1004.4
20260506164602 61 181 5.0 13.0 0.05 0.24 0.24 90 1004.3
20260506163002 61 173 5.0 12.0 0.11 0.24 0.24 91 1004.1
20260506161607 61 207 3.0 12.0 0.15 0.22 0.22 91 1004.5
20260506153102 61 209 3.0 10.0 0.11 0.13 0.13 88 1005.6
20260506151502 62 196 3.0 7.0 0.07 0.07 0.07 87 1005.7
20260506150108 62 187 3.0 8.0 0.05 0.05 0.05 87 1005.6
20260506144501 62 223 3.0 5.0 0.04 0.04 0.04 85 1005.3
20260506143105 63 207 2.0 7.0 0.02 0.02 0.02 81 1005.5
20260506141603 65 244 6.0 12.0 0.00 0.00 0.00 76 1005.6
20260506140005 66 265 1.0 8.0 0.00 0.00 0.00 74 1005.5
20260506134502 66 247 4.0 9.0 0.00 0.00 0.00 73 1005.0
20260506133104 65 240 1.0 9.0 0.00 0.00 0.00 75 1005.4
20260506131502 65 283 5.0 11.0 0.00 0.00 0.00 74 1005.4
20260506130143 66 262 3.0 10.0 0.00 0.00 0.00 73 1005.7
20260506124502 66 179 3.0 11.0 0.00 0.00 0.00 72 1005.6
20260506123103 65 227 3.0 10.0 0.00 0.00 0.00 73 1005.6
20260506121604 65 184 4.0 9.0 0.00 0.00 0.00 74 1005.4
20260506120002 65 184 5.0 10.0 0.00 0.00 0.00 74 1005.4
20260506114602 64 193 3.0 13.0 0.00 0.00 0.00 75 1005.3
20260506113002 64 211 7.0 12.0 0.00 0.00 0.00 75 1005.1
20260506111602 64 210 3.0 9.0 0.00 0.00 0.00 75 1005.4
20260506110006 64 232 5.0 10.0 0.00 0.00 0.00 75 1005.1
20260506104503 64 244 6.0 10.0 0.00 0.00 0.00 75 1005.1
20260506103102 64 167 5.0 12.0 0.00 0.00 0.00 75 1004.9
20260506101502 64 209 7.0 12.0 0.00 0.00 0.00 75 1004.9
20260506100104 65 183 5.0 11.0 0.00 0.00 0.00 74 1004.9
20260506094507 65 198 5.0 11.0 0.00 0.00 0.00 74 1005.0
20260506093106 65 244 5.0 10.0 0.00 0.00 0.00 73 1004.8
20260506091502 66 215 6.0 11.0 0.00 0.00 0.00 72 1004.9
20260506084507 66 235 6.0 11.0 0.00 0.00 0.00 70 1005.0
20260506083103 67 194 4.0 15.0 0.00 0.00 0.00 70 1005.1
20260506073106 66 175 4.0 10.0 0.00 0.00 0.00 69 1005.2
20260506071502 67 207 4.0 10.0 0.00 0.00 0.00 68 1005.3
20260506070104 67 182 5.0 11.0 0.00 0.00 0.00 67 1005.2
20260506061502 67 157 3.0 9.0 0.00 0.00 0.00 65 1005.7
20260506044603 67 186 1.0 9.0 0.00 0.00 0.00 62 1006.2
20260506043102 67 182 4.0 8.0 0.00 0.00 0.00 62 1006.3
20260506041502 68 198 3.0 8.0 0.00 0.00 0.00 62 1006.2
20260506034501 68 211 3.0 9.0 0.00 0.00 0.00 61 1006.2
20260506033113 68 194 5.0 9.0 0.00 0.00 0.00 60 1006.0
20260506031502 69 194 4.0 11.0 0.00 0.00 0.00 57 1006.0
20260506024502 71 180 4.0 9.0 0.00 0.00 0.00 53 1005.9
20260506023102 71 198 7.0 12.0 0.00 0.00 0.00 52 1006.0
20260506021502 72 180 4.0 12.0 0.00 0.00 0.00 51 1005.9
20260506020103 72 217 3.0 9.0 0.00 0.00 0.00 49 1006.0
20260506014504 73 172 6.0 10.0 0.00 0.00 0.00 48 1005.8
20260506013102 73 184 4.0 10.0 0.00 0.00 0.00 46 1005.7
20260506011502 74 209 4.0 12.0 0.00 0.00 0.00 46 1005.6
20260506010003 74 196 3.0 10.0 0.00 0.00 0.00 45 1005.4
20260506004604 74 180 4.0 13.0 0.00 0.00 0.00 46 1005.3
20260506003003 75 207 4.0 10.0 0.00 0.00 0.00 45 1005.1
20260506001619 76 233 4.0 9.0 0.00 0.00 0.00 40 1004.9
20260506000010 76 194 4.0 10.0 0.00 0.00 0.00 40 1004.9
20260505234604 77 178 4.0 11.0 0.00 0.00 0.00 40 1004.7
20260505233002 77 169 3.0 10.0 0.00 0.00 0.00 40 1004.6
20260505231603 78 206 2.0 11.0 0.00 0.00 0.00 39 1004.6
20260505230002 78 223 3.0 23.0 0.00 0.00 0.00 37 1004.6
20260505224603 79 213 4.0 12.0 0.00 0.00 0.00 37 1004.5
20260505223007 79 220 4.0 11.0 0.00 0.00 0.00 36 1004.5